Location: Newark
(43.0000°N, 1.6781°W)
Time: 06:46:03
(UTC+00:00)

Delta 2 Rocket - Visible Passes

Search period start: 10 June 2023 00:00
Search period end: 20 June 2023 00:00
Orbit: 409 x 745 km, 35.6° (Epoch: 09 June)

Date Brightness Start Highest point End Pass type
(mag) Time Alt. Az. Time Alt. Az. Time Alt. Az.
14 Jun 5.4 03:43:07 10° SSE 03:43:18 10° SSE 03:43:29 10° SSE visible
15 Jun 5.1 03:43:31 10° SSW 03:45:31 14° SSE 03:47:26 10° SE visible
16 Jun 4.8 03:45:06 10° SSW 03:47:45 18° SSE 03:50:15 10° ESE visible
17 Jun 4.5 03:46:56 10° SW 03:49:57 22° S 03:52:47 10° ESE visible
18 Jun 5.3 02:12:21 13° SE 02:12:21 13° SE 02:13:29 10° SE visible
18 Jun 4.3 03:48:55 10° SW 03:52:10 25° S 03:55:10 10° ESE visible
19 Jun 5.0 02:14:13 18° SSE 02:14:13 18° SSE 02:16:14 10° ESE visible
19 Jun 4.2 03:50:59 10° WSW 03:54:22 27° S 03:57:27 10° ESE visible
